Weather History for KAIB - April, 2014

Change the Weather History Date:

Wednesday, April 23, 2014

  Actual Average Record
Temperature  
Mean Temperature 52 °F -  
Max Temperature 64 °F - - ()
Min Temperature 35 °F - - ()
Degree Days  
Heating Degree Days 12    
Growing Degree Days 2 (Base 50)    
Moisture  
Dew Point 19 °F    
Average Humidity 26    
Maximum Humidity 40    
Minimum Humidity 19    
Precipitation  
Precipitation 0.00 in - - ()
Sea Level Pressure  
Sea Level Pressure 29.90 in    
Wind  
Wind Speed 16 mph (West)    
Max Wind Speed 26 mph    
Max Gust Speed 37 mph    
Visibility 10 miles    
Events      
T = Trace of Precipitation, MM = Missing Value Source: NWS Daily Summary

Daily Weather History Graph

Daily Weather History Graph

Search for Another Location

Airport or City:

Trip Planner

Search our weather history database for the weather conditions in past years. The results will help you decide how hot, cold, wet, or windy it might be!

Date:

Astronomy

Apr. 23, 2014 Rise Set
Actual Time 6:27 AM MDT 7:58 PM MDT
Civil Twilight 5:59 AM MDT 8:26 PM MDT
Nautical Twilight 5:26 AM MDT 8:59 PM MDT
Astronomical Twilight 4:51 AM MDT 9:35 PM MDT
Moon 2:56 AM MDT (4/23) 2:15 PM MDT (4/23)
Length of Visible Light 14h 26m
Length of Day
13h 30m
Waning Crescent, 34% of the Moon is Illuminated
Apr 23
Waning Crescent
Apr 29
New
May 6
First Quarter
May 14
Full
May 21
Last Quarter

Hourly Weather History & Observations

Time (MDT) Temp. Windchill Dew Point Humidity Pressure Visibility Wind Dir Wind Speed Gust Speed Precip Events Conditions
12:15 AM 64.4 °F - 23.0 °F 21% 29.77 in 10.0 mi SSW 26.5 mph 34.5 mph N/A   Unknown
12:35 AM 62.6 °F - 24.8 °F 24% 29.78 in 10.0 mi SSW 25.3 mph 36.8 mph N/A   Unknown
12:55 AM 62.6 °F - 24.8 °F 24% 29.78 in 10.0 mi SSW 26.5 mph 35.7 mph N/A   Unknown
1:15 AM 62.6 °F - 24.8 °F 24% 29.79 in 10.0 mi SSW 25.3 mph 33.4 mph N/A   Unknown
1:35 AM 62.6 °F - 24.8 °F 24% 29.79 in 10.0 mi SSW 21.9 mph 28.8 mph N/A   Unknown
1:55 AM 60.8 °F - 24.8 °F 25% 29.79 in 10.0 mi SSW 17.3 mph 24.2 mph N/A   Unknown
2:15 AM 60.8 °F - 24.8 °F 25% 29.79 in 10.0 mi SSW 16.1 mph 20.7 mph N/A   Unknown
2:35 AM 59.0 °F - 24.8 °F 27% 29.79 in 10.0 mi SSW 13.8 mph 18.4 mph N/A   Unknown
2:55 AM 59.0 °F - 24.8 °F 27% 29.80 in 10.0 mi SSW 10.4 mph 19.6 mph N/A   Unknown
3:15 AM 59.0 °F - 23.0 °F 25% 29.80 in 10.0 mi SW 12.7 mph 18.4 mph N/A   Unknown
3:35 AM 59.0 °F - 24.8 °F 27% 29.80 in 10.0 mi SW 10.4 mph 17.3 mph N/A   Unknown
3:55 AM 59.0 °F - 24.8 °F 27% 29.81 in 10.0 mi SW 12.7 mph 23.0 mph N/A   Unknown
4:15 AM 59.0 °F - 23.0 °F 25% 29.81 in 10.0 mi SW 17.3 mph 28.8 mph N/A   Unknown
4:35 AM 59.0 °F - 21.2 °F 23% 29.81 in 10.0 mi SSW 16.1 mph 27.6 mph N/A   Unknown
4:55 AM 55.4 °F - 21.2 °F 26% 29.82 in 10.0 mi SSW 12.7 mph 18.4 mph N/A   Unknown
5:15 AM 55.4 °F - 21.2 °F 26% 29.81 in 10.0 mi SSW 11.5 mph - N/A   Unknown
5:35 AM 53.6 °F - 21.2 °F 28% 29.82 in 10.0 mi SW 6.9 mph - N/A   Unknown
5:55 AM 51.8 °F - 19.4 °F 28% 29.82 in 10.0 mi SSW 4.6 mph - N/A   Unknown
6:15 AM 50.0 °F - 21.2 °F 32% 29.83 in 10.0 mi West 4.6 mph - N/A   Unknown
6:35 AM 50.0 °F - 19.4 °F 30% 29.83 in 10.0 mi WSW 5.8 mph - N/A   Unknown
6:55 AM 50.0 °F - 19.4 °F 30% 29.84 in 10.0 mi SW 6.9 mph - N/A   Unknown
7:15 AM 50.0 °F - 19.4 °F 30% 29.85 in 10.0 mi SW 8.1 mph - N/A   Unknown
7:35 AM 50.0 °F - 21.2 °F 32% 29.85 in 10.0 mi WNW 8.1 mph - N/A   Unknown
7:55 AM 50.0 °F - 26.6 °F 40% 29.86 in 10.0 mi WNW 5.8 mph - N/A   Unknown
8:15 AM 51.8 °F - 26.6 °F 38% 29.87 in 10.0 mi NW 10.4 mph - N/A   Unknown
8:35 AM 51.8 °F - 26.6 °F 38% 29.88 in 10.0 mi NW 11.5 mph 17.3 mph N/A   Unknown
8:55 AM 53.6 °F - 26.6 °F 35% 29.88 in 10.0 mi NW 11.5 mph - N/A   Unknown
9:15 AM 51.8 °F - 26.6 °F 38% 29.89 in 10.0 mi NNW 9.2 mph - N/A   Unknown
9:35 AM 53.6 °F - 26.6 °F 35% 29.89 in 10.0 mi NW 5.8 mph - N/A   Unknown
9:55 AM 53.6 °F - 26.6 °F 35% 29.89 in 10.0 mi West 11.5 mph - N/A   Unknown
10:15 AM 53.6 °F - 23.0 °F 30% 29.90 in 10.0 mi West 10.4 mph 16.1 mph N/A   Unknown
10:35 AM 53.6 °F - 21.2 °F 28% 29.90 in 10.0 mi WNW 9.2 mph 18.4 mph N/A   Unknown
11:15 AM 55.4 °F - 21.2 °F 26% 29.91 in 10.0 mi West 13.8 mph 18.4 mph N/A   Unknown
11:35 AM 53.6 °F - 21.2 °F 28% 29.90 in 10.0 mi West 10.4 mph - N/A   Unknown
11:55 AM 55.4 °F - 19.4 °F 25% 29.90 in 10.0 mi West 9.2 mph 16.1 mph N/A   Unknown
12:15 PM 55.4 °F - 19.4 °F 25% 29.90 in 10.0 mi West 9.2 mph 16.1 mph N/A   Unknown
12:35 PM 59.0 °F - 19.4 °F 22% 29.90 in 10.0 mi WNW 12.7 mph 18.4 mph N/A   Unknown
12:55 PM 57.2 °F - 17.6 °F 21% 29.90 in 10.0 mi West 18.4 mph 24.2 mph N/A   Unknown
1:15 PM 55.4 °F - 17.6 °F 23% 29.91 in 10.0 mi West 20.7 mph 27.6 mph N/A   Unknown
1:35 PM 53.6 °F - 17.6 °F 24% 29.91 in 10.0 mi West 16.1 mph 25.3 mph N/A   Unknown
2:15 PM 53.6 °F - 17.6 °F 24% 29.92 in 10.0 mi West 16.1 mph 20.7 mph N/A   Unknown
2:35 PM 51.8 °F - 15.8 °F 24% 29.91 in 10.0 mi West 15.0 mph 21.9 mph N/A   Unknown
2:55 PM 51.8 °F - 15.8 °F 24% 29.91 in 10.0 mi West 18.4 mph 23.0 mph N/A   Unknown
3:15 PM 53.6 °F - 17.6 °F 24% 29.92 in 10.0 mi West 18.4 mph 25.3 mph N/A   Unknown
3:35 PM 53.6 °F - 15.8 °F 22% 29.92 in 10.0 mi West 15.0 mph 20.7 mph N/A   Unknown
3:55 PM 51.8 °F - 17.6 °F 26% 29.92 in 10.0 mi West 15.0 mph 20.7 mph N/A   Unknown
4:15 PM 53.6 °F - 17.6 °F 24% 29.92 in 10.0 mi West 16.1 mph 20.7 mph N/A   Unknown
4:35 PM 55.4 °F - 17.6 °F 23% 29.92 in 10.0 mi West 15.0 mph 23.0 mph N/A   Unknown
4:55 PM 55.4 °F - 17.6 °F 23% 29.92 in 10.0 mi West 16.1 mph 29.9 mph N/A   Unknown
5:15 PM 53.6 °F - 15.8 °F 22% 29.94 in 10.0 mi West 16.1 mph 24.2 mph N/A   Unknown
5:35 PM 53.6 °F - 14.0 °F 21% 29.94 in 10.0 mi WSW 20.7 mph 25.3 mph N/A   Unknown
5:55 PM 53.6 °F - 14.0 °F 21% 29.96 in 10.0 mi West 21.9 mph 26.5 mph N/A   Unknown
6:15 PM 53.6 °F - 12.2 °F 19% 29.96 in 10.0 mi West 20.7 mph 29.9 mph N/A   Unknown
6:35 PM 51.8 °F - 12.2 °F 21% 29.97 in 10.0 mi West 17.3 mph 27.6 mph N/A   Unknown
6:55 PM 51.8 °F - 12.2 °F 21% 29.97 in 10.0 mi West 19.6 mph 23.0 mph N/A   Unknown
7:15 PM 51.8 °F - 14.0 °F 22% 29.98 in 10.0 mi West 16.1 mph 24.2 mph N/A   Unknown
7:35 PM 50.0 °F - 10.4 °F 20% 30.00 in 10.0 mi NW 10.4 mph 21.9 mph N/A   Unknown
7:55 PM 46.4 °F 40.7 °F 10.4 °F 23% 30.00 in 10.0 mi NW 12.7 mph - N/A   Unknown
8:15 PM 44.6 °F 40.2 °F 10.4 °F 25% 30.01 in 10.0 mi NNW 8.1 mph - N/A   Unknown
8:35 PM 44.6 °F 41.4 °F 10.4 °F 25% 30.03 in 10.0 mi NW 5.8 mph - N/A   Unknown
8:55 PM 42.8 °F 38.0 °F 10.4 °F 27% 30.04 in 10.0 mi NW 8.1 mph - N/A   Unknown
9:15 PM 42.8 °F 38.0 °F 10.4 °F 27% 30.05 in 10.0 mi NNW 8.1 mph - N/A   Unknown
9:35 PM 42.8 °F 39.3 °F 10.4 °F 27% 30.06 in 10.0 mi NW 5.8 mph - N/A   Unknown
9:55 PM 42.8 °F 39.3 °F 8.6 °F 25% 30.07 in 10.0 mi WNW 5.8 mph - N/A   Unknown
10:15 PM 41.0 °F 35.8 °F 10.4 °F 29% 30.07 in 10.0 mi WNW 8.1 mph - N/A   Unknown
10:35 PM 41.0 °F 34.7 °F 8.6 °F 26% 30.07 in 10.0 mi WNW 10.4 mph - N/A   Unknown
10:55 PM 42.8 °F 39.3 °F 10.4 °F 27% 30.07 in 10.0 mi NNW 5.8 mph - N/A   Unknown
11:15 PM 42.8 °F 41.1 °F 10.4 °F 27% 30.08 in 10.0 mi NNW 3.5 mph - N/A   Unknown
11:55 PM 35.6 °F 29.9 °F 12.2 °F 38% 30.09 in 10.0 mi ESE 6.9 mph - N/A   Unknown